Latest Coastal Weather Observations for McCluer Island

IDD60701

Issued at 5:21 pm CST Friday 18 September 2020 (issued every 10 minutes, with the page automatically refreshed every 10 minutes)

About coastal observations | Map of coastal stations | Coastal observations for NT | Marine services | Other Formats
Station Details ID: 014274 Name: MCCLUER ISLAND Lat: -11.05 Lon: 132.98 Height: 1.4 m
Data from the previous 72 hours. | See also: Recent months at McCluer Island
Date/Time
CST
Wind Sea
Height
m
Swell Vis
km
Cloud Weather Temp
°C
Press
hPa
Rain since
9am
mm
Dir  Spd
kts
Gust
kts
Height
m
Period
s
Dir
18/05:00pm E 11 13 - - - - - - - 27.6 1010.3 0.0
18/04:30pm E 11 13 - - - - - - - 27.9 1010.3 0.0
18/04:00pm E 10 12 - - - - - - - 28.3 1010.4 0.0
18/03:30pm E 11 14 - - - - - - - 28.8 1010.7 0.0
18/03:00pm E 11 13 - - - - - - - 29.1 1011.0 0.0
18/02:30pm E 10 12 - - - - - - - 29.4 1011.2 0.0
18/02:00pm E 12 15 - - - - - - - 29.3 1011.5 0.0
18/01:30pm E 12 15 - - - - - - - 29.8 1012.0 0.0
18/01:00pm ESE 11 14 - - - - - - - 29.8 1012.5 0.0
18/12:30pm E 11 14 - - - - - - - 29.6 1012.9 0.0
18/12:00pm E 12 15 - - - - - - - 29.1 1013.6 0.0
18/11:30am ESE 12 14 - - - - - - - 30.2 1013.9 0.0
18/11:00am ESE 12 15 - - - - - - - 29.4 1014.2 0.0
18/10:30am E 10 12 - - - - - - - 29.3 1014.4 0.0
18/10:00am E 11 13 - - - - - - - 28.5 1014.3 0.0
18/09:30am ESE 10 12 - - - - - - - 28.4 1014.1 0.0
18/09:00am ESE 10 11 - - - - - - - 27.8 1013.9 0.0
18/08:30am E 10 12 - - - - - - - 27.5 1013.6 0.0
18/08:00am E 10 11 - - - - - - - 27.0 1013.5 0.0
18/07:30am E 11 13 - - - - - - - 26.9 1012.9 0.0
18/07:00am E 12 13 - - - - - - - 26.7 1012.5 0.0
18/06:30am E 11 13 - - - - - - - 26.7 1012.1 0.0
18/06:00am E 13 15 - - - - - - - 26.5 1011.5 0.0
18/05:30am E 11 13 - - - - - - - 26.7 1011.3 0.0
18/05:00am E 11 13 - - - - - - - 26.6 1011.2 0.0
18/04:30am E 11 12 - - - - - - - 26.5 1011.2 0.0
18/04:00am E 11 13 - - - - - - - 26.6 1011.1 0.0
18/03:30am E 13 14 - - - - - - - 26.8 1011.3 0.0
18/03:00am E 12 14 - - - - - - - 26.6 1011.4 0.0
18/02:30am E 13 15 - - - - - - - 26.7 1011.5 0.0
18/02:00am E 13 16 - - - - - - - 26.7 1011.5 0.0
18/01:30am E 13 15 - - - - - - - 26.8 1011.8 0.0
18/01:00am E 11 12 - - - - - - - 26.7 1012.0 0.0
18/12:30am ENE 11 12 - - - - - - - 26.8 1012.2 0.0
18/12:00am E 10 11 - - - - - - - 26.7 1012.4 0.0
 
Date/Time
CST
Wind Sea
Height
m
Swell Vis
km
Cloud Weather Temp
°C
Press
hPa
Rain since
9am
mm
Dir  Spd
kts
Gust
kts
Height
m
Period
s
Dir
17/11:30pm ENE 10 11 - - - - - - - 26.7 1012.6 0.0
17/11:00pm ENE 9 10 - - - - - - - 26.8 1012.7 0.0
17/10:30pm ENE 9 10 - - - - - - - 26.9 1012.6 0.0
17/10:00pm ENE 11 12 - - - - - - - 27.0 1012.5 0.0
17/09:30pm NE 9 10 - - - - - - - 26.9 1012.3 0.0
17/09:00pm NE 9 11 - - - - - - - 27.0 1012.1 0.0
17/08:30pm NE 10 11 - - - - - - - 26.9 1011.9 0.0
17/08:00pm NE 10 11 - - - - - - - 26.9 1011.5 0.0
17/07:30pm ENE 10 12 - - - - - - - 27.1 1011.3 0.0
17/07:00pm ENE 11 12 - - - - - - - 27.1 1011.0 0.0
17/06:30pm ENE 12 13 - - - - - - - 26.9 1010.8 0.0
17/06:00pm E 10 12 - - - - - - - 27.1 1010.7 0.0
17/05:30pm E 10 12 - - - - - - - 27.5 1010.5 0.0
17/05:00pm E 10 12 - - - - - - - 27.7 1010.3 0.0
17/04:30pm E 11 13 - - - - - - - 27.6 1010.3 0.0
17/04:00pm E 11 13 - - - - - - - 28.1 1010.4 0.0
17/03:30pm E 10 12 - - - - - - - 28.3 1010.6 0.0
17/03:00pm E 10 12 - - - - - - - 28.2 1011.0 0.0
17/02:30pm E 10 11 - - - - - - - 28.7 1011.3 0.0
17/02:00pm E 10 12 - - - - - - - 28.8 1011.7 0.0
17/01:30pm ESE 10 12 - - - - - - - 28.9 1012.0 0.0
17/01:00pm ESE 11 13 - - - - - - - 28.8 1012.4 0.0
17/12:30pm E 11 13 - - - - - - - 28.1 1012.9 0.0
17/12:00pm E 12 14 - - - - - - - 28.4 1013.3 0.0
17/11:30am E 11 12 - - - - - - - 28.4 1013.9 0.0
17/11:00am E 12 14 - - - - - - - 28.3 1013.9 0.0
17/10:30am E 12 14 - - - - - - - 27.7 1014.1 0.0
17/10:00am E 13 15 - - - - - - - 27.7 1014.1 0.0
17/09:30am E 12 14 - - - - - - - 27.4 1013.8 0.0
17/09:00am E 12 13 - - - - - - - 27.2 1013.6 0.0
17/08:30am E 12 14 - - - - - - - 26.6 1013.3 0.0
17/08:00am E 12 14 - - - - - - - 26.8 1013.3 0.0
17/07:30am E 12 14 - - - - - - - 26.4 1013.1 0.0
17/07:00am E 13 15 - - - - - - - 26.5 1012.7 0.0
17/06:30am E 14 16 - - - - - - - 26.3 1012.3 0.0
17/06:00am E 15 17 - - - - - - - 26.4 1011.8 0.0
17/05:30am E 15 17 - - - - - - - 26.6 1011.5 0.0
17/05:00am E 16 19 - - - - - - - 26.5 1011.1 0.0
17/04:30am E 17 19 - - - - - - - 26.4 1011.1 0.0
17/04:00am E 16 18 - - - - - - - 26.3 1011.1 0.0
17/03:30am E 17 19 - - - - - - - 26.5 1011.1 0.0
17/03:00am E 17 18 - - - - - - - 26.3 1011.1 0.0
17/02:30am E 15 17 - - - - - - - 26.3 1011.2 0.0
17/02:00am ENE 15 17 - - - - - - - 26.3 1011.5 0.0
17/01:30am E 16 18 - - - - - - - 26.4 1011.9 0.0
17/01:00am E 15 16 - - - - - - - 26.5 1012.2 0.0
17/12:30am E 15 17 - - - - - - - 26.6 1012.5 0.0
17/12:00am E 16 17 - - - - - - - 26.4 1012.8 0.0
 
Date/Time
CST
Wind Sea
Height
m
Swell Vis
km
Cloud Weather Temp
°C
Press
hPa
Rain since
9am
mm
Dir  Spd
kts
Gust
kts
Height
m
Period
s
Dir
16/11:30pm ENE 15 17 - - - - - - - 26.6 1013.0 0.0
16/11:00pm ENE 15 17 - - - - - - - 26.7 1013.0 0.0
16/10:30pm ENE 13 15 - - - - - - - 26.6 1012.9 0.0
16/10:00pm ENE 12 15 - - - - - - - 26.7 1012.9 0.0
16/09:30pm ENE 13 15 - - - - - - - 26.6 1012.7 0.0
16/09:00pm ENE 14 17 - - - - - - - 26.6 1012.5 0.0
16/08:30pm ENE 14 17 - - - - - - - 27.1 1012.3 0.0
16/08:00pm ENE 13 14 - - - - - - - 26.9 1012.0 0.0
16/07:30pm ENE 14 17 - - - - - - - 26.9 1011.8 0.0
16/07:00pm ENE 15 17 - - - - - - - 26.9 1011.6 0.0
16/06:30pm ENE 15 17 - - - - - - - 26.7 1011.4 0.0
16/06:00pm ENE 16 18 - - - - - - - 27.0 1011.0 0.0
16/05:30pm ENE 15 17 - - - - - - - 26.9 1011.1 0.0
16/05:00pm ENE 14 17 - - - - - - - 26.7 1011.1 0.0
16/04:30pm E 14 16 - - - - - - - 27.1 1011.1 0.0
16/04:00pm E 14 17 - - - - - - - 27.2 1011.1 0.0
16/03:30pm E 15 17 - - - - - - - 27.3 1011.4 0.0
16/03:00pm E 14 17 - - - - - - - 27.5 1011.6 0.0
16/02:30pm ESE 15 17 - - - - - - - 27.6 1011.9 0.0
16/02:00pm ESE 13 16 - - - - - - - 27.6 1012.4 0.0
16/01:30pm E 14 16 - - - - - - - 28.4 1012.8 0.0
16/01:00pm E 14 16 - - - - - - - 28.2 1013.1 0.0
16/12:30pm E 15 17 - - - - - - - 27.8 1013.2 0.0
16/12:00pm E 15 16 - - - - - - - 27.7 1013.7 0.0
16/11:30am E 16 18 - - - - - - - 27.4 1014.0 0.0
16/11:00am E 16 19 - - - - - - - 27.2 1014.3 0.0
16/10:30am E 16 18 - - - - - - - 27.1 1014.6 0.0
16/10:00am E 17 20 - - - - - - - 26.6 1014.5 0.0
16/09:30am E 17 19 - - - - - - - 26.7 1014.2 0.0
16/09:00am E 17 19 - - - - - - - 26.4 1014.0 0.0
16/08:30am E 17 19 - - - - - - - 26.2 1013.7 0.0
16/08:00am E 17 19 - - - - - - - 26.2 1013.4 0.0
16/07:30am E 17 19 - - - - - - - 25.9 1012.9 0.0
16/07:00am E 17 19 - - - - - - - 25.8 1012.4 0.0
16/06:30am E 17 20 - - - - - - - 25.8 1012.1 0.0
16/06:00am E 18 21 - - - - - - - 25.9 1011.7 0.0
16/05:30am E 18 21 - - - - - - - 26.1 1011.6 0.0
16/05:00am E 19 21 - - - - - - - 26.2 1011.6 0.0
16/04:30am E 19 22 - - - - - - - 26.0 1011.3 0.0
16/04:00am E 19 22 - - - - - - - 26.1 1011.1 0.0
16/03:30am E 19 22 - - - - - - - 26.2 1011.2 0.0
16/03:00am E 18 21 - - - - - - - 26.2 1011.4 0.0
16/02:30am E 18 21 - - - - - - - 26.3 1011.5 0.0
16/02:00am E 18 21 - - - - - - - 26.5 1011.7 0.0
16/01:30am E 20 23 - - - - - - - 26.4 1012.0 0.0
16/01:00am E 19 22 - - - - - - - 26.5 1012.4 0.0
16/12:30am E 20 23 - - - - - - - 26.6 1012.5 0.0
16/12:00am E 20 23 - - - - - - - 26.6 1012.7 0.0
 
Date/Time
CST
Wind Sea
Height
m
Swell Vis
km
Cloud Weather Temp
°C
Press
hPa
Rain since
9am
mm
Dir  Spd
kts
Gust
kts
Height
m
Period
s
Dir
15/11:30pm ENE 20 23 - - - - - - - 26.5 1012.9 0.0
15/11:00pm ENE 21 25 - - - - - - - 26.6 1013.1 0.0
15/10:30pm ENE 21 23 - - - - - - - 26.7 1013.1 0.0
15/10:00pm ENE 21 25 - - - - - - - 26.5 1013.0 0.0
15/09:30pm ENE 19 22 - - - - - - - 26.6 1012.9 0.0
15/09:00pm ENE 21 25 - - - - - - - 26.8 1012.8 0.0
15/08:30pm ENE 19 23 - - - - - - - 26.9 1012.4 0.0
15/08:00pm ENE 19 24 - - - - - - - 27.1 1012.1 0.0
15/07:30pm ENE 18 22 - - - - - - - 26.7 1011.8 0.0
15/07:00pm ENE 18 21 - - - - - - - 26.8 1011.3 0.0
15/06:30pm ENE 19 21 - - - - - - - 26.9 1011.0 0.0
15/06:00pm ENE 17 21 - - - - - - - 27.3 1011.0 0.0
15/05:30pm E 17 18 - - - - - - - 27.0 1010.9 0.0

Other formats

Comma delimited format used in spreadsheet applications
http://www.bom.gov.au/fwo/IDD60701/IDD60701.94135.axf

JavaScript Object Notation format (JSON) in row-major order
http://www.bom.gov.au/fwo/IDD60701/IDD60701.94135.json

Data quality

Most of these data are generated automatically and are frequently updated. Quality checks on data are not normally performed. It is possible for incorrect values to appear. Refer to information at About Latest Weather Observations and please check the disclaimer before using these data.